Skip Page Navigation
NASA JPL Caltech
NASA Logo - Jet Propulsion Laboratory + View the NASA Portal
+ Center for Near-Earth Object Studies
JPL Home Earth Solar System Stars & Galaxies Technology
JPL Solar System Dynamics
BODIES ORBITS EPHEMERIDES TOOLS PHYSICAL DATA DISCOVERY FAQ SITE MAP
JPL Small-Body Database Browser
Search: [ help ]  
134899 (2000 WV106)
Classification: Main-belt Asteroid          SPK-ID: 2134899
Ephemeris | Orbit Diagram | Orbital Elements | Mission Design | Physical Parameters | Discovery Circumstances ]

[ show orbit diagram ]
Orbital Elements at Epoch 2459200.5 (2020-Dec-17.0) TDB
Reference: JPL 15 (heliocentric ecliptic J2000)
 Element Value Uncertainty (1-sigma)   Units 
e .1910889093157017 4.0289e-08  
a 2.182890149746506 5.8979e-09 au
q 1.765764051875458 8.8671e-08 au
i 5.337978290287563 4.4301e-06 deg
node 38.05810745048839 3.6338e-05 deg
peri 327.7118074317308 3.7165e-05 deg
M 123.2346396587243 7.6277e-06 deg
tp 2458797.247983940641
(2019-Nov-09.74798394)
2.4592e-05 TDB
period 1178.002598809823
3.23
4.7742e-06
1.307e-08
d
yr
n .3056020422736933 1.2386e-09 deg/d
Q 2.600016247617555 7.0249e-09 au
  Orbit Determination Parameters
   # obs. used (total)      688  
   data-arc span      7435 days (20.36 yr)  
   first obs. used      2000-11-05  
   last obs. used      2021-03-15  
   planetary ephem.      DE441  
   SB-pert. ephem.      SB441-N16  
   condition code      0  
   norm. resid. RMS      .52054  
   source      ORB  
   producer      Otto Matic  
   solution date      2021-Apr-13 18:10:36  

Additional Information
 Earth MOID = .765794 au 
 Jupiter MOID = 2.8628 au 
 T_jup = 3.650 
[ show covariance matrix ]

Ephemeris | Orbit Diagram | Orbital Elements | Mission Design | Physical Parameters | Discovery Circumstances ]

Physical Parameter Table
Parameter Symbol Value Units Sigma Reference Notes
absolute magnitude H 16.61   n/a E2021B55  

134899 (2000 WV106)          Discovered 2000-Nov-20 by LINEAR at Socorro
Reference: 20060907/Numbers.arcLast Updated: 2006-09-10
Ephemeris | Orbit Diagram | Orbital Elements | Mission Design | Physical Parameters | Discovery Circumstances ]
ABOUT SSD CREDITS/AWARDS PRIVACY/COPYRIGHT GLOSSARY LINKS
FirstGov 2021-Apr-19 13:56 UT
(server date/time)  
NASA Home Page
Site Manager:   Ryan S. Park
Webmaster  Alan B. Chamberlin